Weather History for Mammoth, CA

Change the Weather History Date:

Monday, June 3, 2013

  Actual Average Record
Temperature  
Mean Temperature 63 °F -  
Max Temperature 80 °F 66 °F 84 °F (2012)
Min Temperature 46 °F 55 °F 21 °F (2011)
Degree Days  
Heating Degree Days 2    
Growing Degree Days 13 (Base 50)    
Moisture  
Dew Point 33 °F    
Average Humidity 37    
Maximum Humidity 63    
Minimum Humidity 15    
Precipitation  
Precipitation 0.02 in - - ()
Sea Level Pressure  
Sea Level Pressure 30.10 in    
Wind  
Wind Speed 7 mph (West)    
Max Wind Speed 16 mph    
Max Gust Speed 30 mph    
Visibility 10 miles    
Events Rain    
Averages and records for this station are not official NWS values.
T = Trace of Precipitation, MM = Missing Value Source: NWS Daily Summary

Daily Weather History Graph

Daily Weather History Graph

Search for Another Location

Airport:

Trip Planner

Search our weather history database for the weather conditions in past years. The results will help you decide how hot, cold, wet, or windy it might be!

Date:

Astronomy

Jun. 03, 2013 Rise Set
Actual Time 5:34 AM PDT 8:12 PM PDT
Civil Twilight 5:04 AM PDT 8:43 PM PDT
Nautical Twilight 4:25 AM PDT 9:21 PM PDT
Astronomical Twilight 3:42 AM PDT 10:04 PM PDT
Moon 2:30 AM PDT (6/3) 3:52 PM PDT (6/3)
Length of Visible Light 15h 39m
Length of Day
14h 37m
Waning Crescent, 21% of the Moon is Illuminated
Jun 3
Waning Crescent
Jun 8
New
Jun 16
First Quarter
Jun 23
Full
Jun 29
Last Quarter

Hourly Weather History & Observations

Time (PDT) Temp. Windchill Dew Point Humidity Pressure Visibility Wind Dir Wind Speed Gust Speed Precip Events Conditions
12:15 AM 50.0 °F - 30.2 °F 47% 30.07 in 10.0 mi WNW 3.5 mph - N/A   Clear
12:35 AM 50.0 °F - 32.0 °F 50% 30.07 in 10.0 mi WSW 4.6 mph - N/A   Clear
12:55 AM 51.8 °F - 32.0 °F 47% 30.07 in 10.0 mi WNW 4.6 mph - N/A   Clear
1:15 AM 50.0 °F - 32.0 °F 50% 30.06 in 10.0 mi Calm Calm - N/A   Clear
1:35 AM 53.6 °F - 32.0 °F 44% 30.06 in 10.0 mi West 6.9 mph - N/A   Clear
1:55 AM 53.6 °F - 32.0 °F 44% 30.06 in 10.0 mi Calm Calm - N/A   Clear
2:15 AM 50.0 °F - 32.0 °F 50% 30.06 in 10.0 mi Calm Calm - N/A   Clear
2:35 AM 51.8 °F - 33.8 °F 50% 30.06 in 10.0 mi WNW 5.8 mph - N/A   Clear
2:55 AM 50.0 °F - 32.0 °F 50% 30.06 in 10.0 mi West 5.8 mph - N/A   Clear
3:15 AM 51.8 °F - 32.0 °F 47% 30.06 in 10.0 mi Calm Calm - N/A   Clear
3:35 AM 50.0 °F - 32.0 °F 50% 30.06 in 10.0 mi West 12.7 mph - N/A   Clear
3:55 AM 53.6 °F - 32.0 °F 44% 30.07 in 10.0 mi West 12.7 mph - N/A   Clear
4:15 AM 51.8 °F - 33.8 °F 50% 30.07 in 10.0 mi West 12.7 mph - N/A   Clear
4:35 AM 50.0 °F - 32.0 °F 50% 30.07 in 10.0 mi West 11.5 mph - N/A   Clear
4:55 AM 50.0 °F - 32.0 °F 50% 30.07 in 10.0 mi West 8.1 mph - N/A   Clear
5:15 AM 48.2 °F - 32.0 °F 54% 30.08 in 10.0 mi WNW 5.8 mph - N/A   Clear
5:35 AM 48.2 °F - 33.8 °F 58% 30.08 in 10.0 mi West 9.2 mph - N/A   Clear
5:55 AM 48.2 °F - 33.8 °F 58% 30.09 in 10.0 mi West 10.4 mph - N/A   Clear
6:15 AM 46.4 °F 42.9 °F 33.8 °F 62% 30.09 in 10.0 mi West 6.9 mph - N/A   Clear
6:35 AM 50.0 °F - 33.8 °F 54% 30.09 in 10.0 mi West 10.4 mph - N/A   Clear
6:55 AM 55.4 °F - 33.8 °F 44% 30.10 in 10.0 mi WNW 11.5 mph - N/A   Clear
7:15 AM 57.2 °F - 32.0 °F 38% 30.11 in 10.0 mi West 12.7 mph - N/A   Clear
7:35 AM 59.0 °F - 32.0 °F 36% 30.11 in 10.0 mi WNW 15.0 mph 18.4 mph N/A   Clear
7:55 AM 60.8 °F - 32.0 °F 34% 30.12 in 10.0 mi West 15.0 mph 20.7 mph N/A   Clear
8:15 AM 62.6 °F - 32.0 °F 32% 30.12 in 10.0 mi WNW 10.4 mph 20.7 mph N/A   Clear
8:35 AM 62.6 °F - 32.0 °F 32% 30.12 in 10.0 mi West 12.7 mph 20.7 mph N/A   Clear
8:55 AM 64.4 °F - 32.0 °F 30% 30.12 in 10.0 mi WNW 8.1 mph 20.7 mph N/A   Clear
9:15 AM 66.2 °F - 32.0 °F 28% 30.12 in 10.0 mi NW 3.5 mph 16.1 mph N/A   Clear
9:35 AM 66.2 °F - 32.0 °F 28% 30.11 in 10.0 mi West 3.5 mph - N/A   Clear
9:55 AM 68.0 °F - 32.0 °F 26% 30.11 in 10.0 mi North 5.8 mph - N/A   Clear
10:15 AM 69.8 °F - 32.0 °F 25% 30.11 in 10.0 mi ENE 5.8 mph - N/A   Clear
10:35 AM 69.8 °F - 32.0 °F 25% 30.11 in 10.0 mi Calm Calm - N/A   Clear
10:55 AM 71.6 °F - 32.0 °F 23% 30.11 in 10.0 mi West 4.6 mph - N/A   Clear
11:15 AM 71.6 °F - 30.2 °F 22% 30.11 in 10.0 mi East 4.6 mph - N/A   Clear
11:35 AM 73.4 °F - 32.0 °F 22% 30.11 in 10.0 mi ESE 6.9 mph - N/A   Clear
11:55 AM 75.2 °F - 32.0 °F 21% 30.11 in 10.0 mi East 5.8 mph - N/A   Clear
12:15 PM 75.2 °F - 30.2 °F 19% 30.10 in 10.0 mi East 10.4 mph - N/A   Clear
12:35 PM 77.0 °F - 28.4 °F 17% 30.09 in 10.0 mi ESE 9.2 mph 16.1 mph N/A   Clear
12:55 PM 77.0 °F - 28.4 °F 17% 30.09 in 10.0 mi SE 9.2 mph - N/A   Clear
1:15 PM 78.8 °F - 28.4 °F 16% 30.08 in 10.0 mi SE 10.4 mph 19.6 mph N/A   Clear
1:35 PM 77.0 °F - 28.4 °F 17% 30.08 in 10.0 mi East 6.9 mph 18.4 mph N/A   Clear
1:55 PM 78.8 °F - 28.4 °F 16% 30.08 in 10.0 mi Calm Calm - N/A   Clear
2:15 PM 78.8 °F - 28.4 °F 16% 30.07 in 10.0 mi SE 9.2 mph - N/A   Clear
2:35 PM 80.6 °F - 28.4 °F 15% 30.08 in 10.0 mi ESE 8.1 mph 18.4 mph N/A   Clear
2:55 PM 80.6 °F - 30.2 °F 16% 30.06 in 10.0 mi ESE 10.4 mph 16.1 mph N/A   Clear
3:15 PM 78.8 °F - 28.4 °F 16% 30.06 in 10.0 mi East 4.6 mph - N/A   Clear
3:35 PM 78.8 °F - 28.4 °F 16% 30.06 in 10.0 mi SE 10.4 mph - N/A   Clear
3:55 PM 75.2 °F - 28.4 °F 18% 30.06 in 10.0 mi South 5.8 mph - N/A   Clear
4:15 PM 75.2 °F - 30.2 °F 19% 30.06 in 10.0 mi SSE 5.8 mph - N/A   Scattered Clouds
4:35 PM 75.2 °F - 26.6 °F 17% 30.06 in 10.0 mi SW 13.8 mph 28.8 mph N/A   Scattered Clouds
4:55 PM 73.4 °F - 24.8 °F 16% 30.06 in 10.0 mi SSW 15.0 mph 26.5 mph N/A   Clear
5:15 PM 73.4 °F - 24.8 °F 16% 30.07 in 10.0 mi South 15.0 mph 28.8 mph N/A   Mostly Cloudy
5:35 PM 71.6 °F - 30.2 °F 22% 30.11 in 10.0 mi North 11.5 mph 20.7 mph N/A   Overcast
5:55 PM 68.0 °F - 33.8 °F 28% 30.11 in 10.0 mi NNW 11.5 mph - N/A   Overcast
6:15 PM 60.8 °F - 48.2 °F 63% 30.11 in 10.0 mi WSW 12.7 mph 18.4 mph 0.02 in Rain Light Rain
6:35 PM 60.8 °F - 44.6 °F 55% 30.11 in 10.0 mi WNW 16.1 mph 24.2 mph 0.02 in   Mostly Cloudy
6:55 PM 64.4 °F - 33.8 °F 32% 30.11 in 10.0 mi WNW 11.5 mph 29.9 mph 0.02 in   Scattered Clouds
7:15 PM 62.6 °F - 37.4 °F 39% 30.15 in 10.0 mi WSW 10.4 mph 21.9 mph N/A   Scattered Clouds
7:35 PM 62.6 °F - 37.4 °F 39% 30.16 in 10.0 mi West 16.1 mph - N/A   Mostly Cloudy
7:55 PM 62.6 °F - 35.6 °F 37% 30.15 in 10.0 mi NW 8.1 mph - N/A   Overcast
8:15 PM 60.8 °F - 35.6 °F 39% 30.16 in 10.0 mi NW 6.9 mph - N/A   Overcast
8:35 PM 60.8 °F - 41.0 °F 48% 30.15 in 10.0 mi SSW 5.8 mph - N/A   Scattered Clouds
8:55 PM 59.0 °F - 39.2 °F 48% 30.13 in 10.0 mi SSW 13.8 mph 20.7 mph N/A   Clear
9:15 PM 59.0 °F - 39.2 °F 48% 30.13 in 10.0 mi West 3.5 mph - N/A   Clear
9:35 PM 59.0 °F - 37.4 °F 45% 30.14 in 10.0 mi West 5.8 mph - N/A   Clear
9:55 PM 57.2 °F - 37.4 °F 48% 30.14 in 10.0 mi West 4.6 mph - N/A   Clear
10:15 PM 57.2 °F - 37.4 °F 48% 30.14 in 10.0 mi Calm Calm - N/A   Clear
10:35 PM 55.4 °F - 37.4 °F 51% 30.14 in 10.0 mi Calm Calm - N/A   Clear
10:55 PM 53.6 °F - 39.2 °F 58% 30.14 in 10.0 mi Calm Calm - N/A   Clear
11:15 PM 55.4 °F - 37.4 °F 51% 30.15 in 10.0 mi Calm Calm - N/A   Clear
11:35 PM 51.8 °F - 35.6 °F 54% 30.15 in 10.0 mi West 8.1 mph - N/A   Clear
11:55 PM 50.0 °F - 35.6 °F 58% 30.15 in 10.0 mi Calm Calm - N/A   Clear